Weather in Costa de la Luz

Spain     36°22′11″N   6°06′19″W
temp.,
°C
wind,
m/s
gust,
m/s
humid.,
%
clouds,
%
prec.,
mm/h
press.,
hPa
HPBL,
m
22 january, sat
sat2201:00+12e1116690 0.0 1023894
04:00+13ese1116660 0.0 1022898
07:00+13e12176764 0.0 1022861
10:00+13e1217715 0.0 1023942
13:00+16ese13166498 0.0 1023930
16:00+15ese13166755 0.0 1022849
19:00+13e1218705 0.0 1022708
22:00+13e10167121 0.0 1023592
23 january, sun
sun2301:00+13e10167329 0.0 1022557
04:00+13ese10167385 0.0 1021552
07:00+13e101571100 0.0 1020508
10:00+13ese11157287 0.0 1022573
13:00+16ese10126490 0.0 1023732
16:00+15e11136841 0.0 1021608
19:00+13ese9147468 0.0 1022554
22:00+13e9137496 0.0 1023659
24 january, mon
mon2401:00+13e101572100 0.1 1023734
04:00+13e101469100 0.0 1023755
07:00+13e9147149 0.0 1023742
10:00+13e81274100 0.0 1024870
13:00+15e10116554 0.0 10251106
16:00+15e1011628 0.0 10241116
19:00+13e9137148 0.0 1025610
22:00+12e914695 0.0 1026690
25 january, tue
tue2501:00+12e915735 0.0 1026868
04:00+12e915755 0.0 1026856
07:00+13e9147595 0.0 10251187
10:00+13e11167235 0.0 10261162
13:00+15e12166516 0.0 10261282
16:00+15e12156846 0.0 10241298
19:00+13e1015740 0.0 10251016
22:00+14e1218750 0.0 10251004
26 january, wed
wed2601:00+13ese14207796 0.0 1024872
04:00+13e13197594 0.0 1024818
07:00+13ese11177799 0.0 1024803
10:00+14ese111578100 0.1 1025874
13:00+15e81276100 2.0 10251023
16:00+15e10137399 0.0 1022894
19:00+14e91475100 0.0 1023666
22:00+14e81475100 0.0 1024765